Change the Weather History Date:

Friday, May 30, 2014

  Actual Average Record
Temperature  
Mean Temperature 60 °F -  
Max Temperature 74 °F 74 °F 89 °F (1999)
Min Temperature 47 °F 54 °F 39 °F (2001)
Degree Days  
Heating Degree Days 4    
Growing Degree Days 10 (Base 50)    
Moisture  
Dew Point 46 °F    
Average Humidity 58    
Maximum Humidity 94    
Minimum Humidity 20    
Precipitation  
Precipitation 0.00 in 0.10 in - ()
Sea Level Pressure  
Sea Level Pressure 30.12 in    
Wind  
Wind Speed 7 mph ()    
Max Wind Speed 20 mph    
Max Gust Speed 29 mph    
Visibility 15.0 miles    
Events Rain    
Averages and records for this station are not official NWS values.
T = Trace of Precipitation, MM = Missing Value Source: Averaged Metar Reports

Daily Weather History Graph

Daily Weather History Graph

Search for Another Location

Airport or City:

Trip Planner

Search our weather history database for the weather conditions in past years. The results will help you decide how hot, cold, wet, or windy it might be!

Date:

Astronomy

May. 30, 2014 Rise Set
Actual Time 5:19 AM EDT 8:41 PM EDT
Civil Twilight 4:42 AM EDT 9:18 PM EDT
Nautical Twilight 3:55 AM EDT 10:06 PM EDT
Astronomical Twilight 2:55 AM EDT 11:06 PM EDT
Moon 7:04 AM EDT (5/30) 10:13 PM EDT (5/30)
Length of Visible Light 16h 35m
Length of Day
15h 22m
Waxing Crescent, 4% of the Moon is Illuminated
May 30
Waxing Crescent
Jun 5
First Quarter
Jun 13
Full
Jun 19
Last Quarter
Jun 27
New

Hourly Weather History & Observations

Time (EDT) Temp. Dew Point Humidity Pressure Visibility Wind Dir Wind Speed Gust Speed Precip Events Conditions
12:00 AM 51.8 °F 50.0 °F 94% 30.11 in 15.0 mi SW 3.5 mph - N/A   Partly Cloudy
1:00 AM 51.8 °F 50.0 °F 94% 30.10 in 15.0 mi Calm Calm - N/A   Mostly Cloudy
2:00 AM 53 °F 50 °F 87% 30.10 in 15 mi West 4.6 mph - -   Overcast
2:00 AM 53.6 °F 50.0 °F 88% 30.10 in 15.0 mi West 4.6 mph - N/A   Overcast
3:00 AM 53.6 °F 51.8 °F 94% 30.09 in 15.0 mi WNW 3.5 mph - N/A   Overcast
4:00 AM 53.6 °F 50.0 °F 88% 30.09 in 15.0 mi SW 2.3 mph - N/A   Overcast
5:00 AM 51.8 °F 50.0 °F 94% 30.10 in 15.0 mi West 3.5 mph - N/A   Overcast
6:00 AM 53.6 °F 51.8 °F 94% 30.11 in 15.0 mi West 4.6 mph - N/A   Mostly Cloudy
7:00 AM 57.2 °F 51.8 °F 82% 30.12 in 15.0 mi WNW 6.9 mph - N/A   Mostly Cloudy
8:00 AM 60 °F 51 °F 63% 30.13 in 15 mi NNW 9.2 mph - -   Scattered Clouds
8:00 AM 59.0 °F 50.0 °F 72% 30.13 in 15.0 mi NNW 10.4 mph - N/A   Mostly Cloudy
9:00 AM 62.6 °F 51.8 °F 68% 30.13 in 15.0 mi North 10.4 mph - N/A   Mostly Cloudy
10:00 AM 64.4 °F 50.0 °F 59% 30.13 in 15.0 mi NW 3.5 mph - N/A   Mostly Cloudy
11:00 AM 64.4 °F 51.8 °F 64% 30.13 in 15.0 mi NW 8.1 mph - N/A Rain Light Rain Showers
11:24 AM 64.4 °F 53.6 °F 68% 30.13 in 15.0 mi NW 6.9 mph - N/A   Mostly Cloudy
12:00 PM 69.8 °F 50.0 °F 49% 30.12 in 15.0 mi NW 12.7 mph - N/A   Mostly Cloudy
1:00 PM 71.6 °F 46.4 °F 41% 30.11 in 15.0 mi NNW 17.3 mph 23.0 mph N/A   Mostly Cloudy
2:00 PM 71 °F 46 °F 30% 30.11 in 15 mi NNW 18.4 mph - -   Partly Cloudy
2:00 PM 71.6 °F 46.4 °F 41% 30.11 in 15.0 mi NW 18.4 mph 26.5 mph N/A   Scattered Clouds
3:00 PM 73.4 °F 39.2 °F 29% 30.10 in 15.0 mi NNE 18.4 mph 28.8 mph N/A   Scattered Clouds
4:00 PM 73.4 °F 37.4 °F 27% 30.09 in 15.0 mi North 15.0 mph 28.8 mph N/A   Scattered Clouds
5:00 PM 73.4 °F 33.8 °F 23% 30.10 in 15.0 mi NNW 19.6 mph 27.6 mph N/A   Partly Cloudy
6:00 PM 71.6 °F 37.4 °F 29% 30.10 in 15.0 mi North 11.5 mph 24.2 mph N/A   Partly Cloudy
7:00 PM 71.6 °F 37.4 °F 29% 30.12 in 15.0 mi North 12.7 mph 20.7 mph N/A   Partly Cloudy
8:00 PM 68 °F 36 °F 20% 30.14 in 15 mi North 15.0 mph - -   Scattered Clouds
8:00 PM 68.0 °F 35.6 °F 30% 30.13 in 15.0 mi North 13.8 mph 24.2 mph N/A   Partly Cloudy
9:00 PM 64.4 °F 37.4 °F 37% 30.15 in 15.0 mi North 6.9 mph - N/A   Partly Cloudy
10:00 PM 62.6 °F 37.4 °F 39% 30.17 in 15.0 mi North 6.9 mph - N/A   Partly Cloudy
11:00 PM 60.8 °F 37.4 °F 42% 30.19 in 15.0 mi North 9.2 mph - N/A   Clear